| time (UTC) | temp F | wind direction | speed MPH | gust MPH | rain 1hr in | rain 24hr in | rain mn in | humidity % | barometer mb |
| 20260510005840 | 70 | 326 | 0.0 | 0.0 | 0.00 | 0.67 | 0.67 | 99 | 1010.4 |
| 20260510005337 | 70 | 7 | 0.0 | 0.0 | 0.00 | 0.67 | 0.67 | 99 | 1010.5 |
| 20260510004834 | 70 | 350 | 0.0 | 0.0 | 0.00 | 0.67 | 0.67 | 99 | 1010.6 |
| 20260510004332 | 70 | 357 | 0.0 | 0.0 | 0.00 | 0.67 | 0.67 | 99 | 1010.4 |
| 20260510003829 | 70 | 12 | 0.0 | 0.0 | 0.00 | 0.67 | 0.67 | 99 | 1010.5 |
| 20260510003326 | 71 | 359 | 0.0 | 0.0 | 0.00 | 0.67 | 0.67 | 99 | 1010.3 |
| 20260510002825 | 71 | 1 | 0.0 | 0.0 | 0.00 | 0.67 | 0.67 | 99 | 1010.4 |
| 20260510002322 | 71 | 353 | 0.0 | 0.0 | 0.00 | 0.67 | 0.67 | 99 | 1010.3 |
| 20260510001819 | 71 | 248 | 0.0 | 0.0 | 0.00 | 0.67 | 0.67 | 99 | 1010.4 |
| 20260510001317 | 71 | 352 | 0.0 | 0.0 | 0.00 | 0.67 | 0.67 | 99 | 1010.1 |
| 20260510000812 | 71 | 8 | 0.0 | 0.0 | 0.00 | 0.67 | 0.67 | 98 | 1010.1 |
| 20260510000311 | 71 | 16 | 0.0 | 0.0 | 0.00 | 0.67 | 0.67 | 98 | 1010.2 |
| 20260509235808 | 71 | 338 | 0.0 | 0.0 | 0.00 | 0.67 | 0.67 | 98 | 1010.0 |
| 20260509235306 | 71 | 330 | 1.0 | 1.0 | 0.00 | 0.67 | 0.67 | 98 | 1009.9 |
| 20260509234800 | 71 | 48 | 1.0 | 1.0 | 0.00 | 0.67 | 0.67 | 98 | 1009.7 |
| 20260509234256 | 71 | 67 | 1.0 | 1.0 | 0.00 | 0.67 | 0.67 | 99 | 1009.8 |
| 20260509233755 | 71 | 10 | 0.0 | 0.0 | 0.00 | 0.67 | 0.67 | 99 | 1009.7 |
| 20260509233252 | 71 | 30 | 0.0 | 1.0 | 0.00 | 0.67 | 0.67 | 99 | 1010.0 |
| 20260509232748 | 71 | 157 | 1.0 | 1.0 | 0.00 | 0.67 | 0.67 | 99 | 1010.0 |
| 20260509232245 | 70 | 7 | 1.0 | 1.0 | 0.00 | 0.67 | 0.67 | 99 | 1009.7 |
| 20260509231741 | 71 | 133 | 1.0 | 1.0 | 0.00 | 0.67 | 0.67 | 99 | 1009.9 |
| 20260509231239 | 70 | 45 | 1.0 | 1.0 | 0.00 | 0.67 | 0.67 | 99 | 1010.2 |
| 20260509230736 | 71 | 66 | 1.0 | 2.0 | 0.00 | 0.67 | 0.67 | 99 | 1010.1 |
| 20260509230233 | 71 | 11 | 1.0 | 1.0 | 0.00 | 0.67 | 0.67 | 99 | 1010.1 |
| 20260509225728 | 71 | 89 | 1.0 | 1.0 | 0.00 | 0.67 | 0.67 | 99 | 1010.1 |
| 20260509225224 | 70 | 148 | 1.0 | 2.0 | 0.00 | 0.67 | 0.67 | 99 | 1010.1 |
| 20260509224720 | 70 | 110 | 1.0 | 1.0 | 0.00 | 0.67 | 0.67 | 99 | 1010.1 |
| 20260509224217 | 71 | 31 | 0.0 | 1.0 | 0.00 | 0.67 | 0.67 | 99 | 1010.2 |
| 20260509223714 | 71 | 155 | 2.0 | 2.0 | 0.00 | 0.67 | 0.67 | 99 | 1010.1 |
| 20260509223211 | 71 | 23 | 0.0 | 0.0 | 0.00 | 0.67 | 0.67 | 99 | 1009.9 |
| 20260509222708 | 71 | 140 | 1.0 | 2.0 | 0.00 | 0.67 | 0.67 | 99 | 1009.9 |
| 20260509222203 | 71 | 87 | 1.0 | 1.0 | 0.00 | 0.67 | 0.67 | 99 | 1009.7 |
| 20260509221659 | 71 | 357 | 0.0 | 0.0 | 0.00 | 0.67 | 0.67 | 99 | 1009.6 |
| 20260509221155 | 71 | 77 | 1.0 | 1.0 | 0.00 | 0.67 | 0.67 | 99 | 1009.5 |
| 20260509220652 | 71 | 81 | 1.0 | 1.0 | 0.00 | 0.67 | 0.67 | 99 | 1009.4 |
| 20260509220148 | 71 | 358 | 0.0 | 0.0 | 0.00 | 0.67 | 0.67 | 99 | 1009.7 |
| 20260509215644 | 71 | 29 | 0.0 | 1.0 | 0.00 | 0.67 | 0.67 | 99 | 1009.6 |
| 20260509215140 | 71 | 319 | 0.0 | 0.0 | 0.00 | 0.67 | 0.67 | 99 | 1009.3 |
| 20260509214632 | 71 | 60 | 1.0 | 1.0 | 0.00 | 0.67 | 0.67 | 99 | 1009.4 |
| 20260509214128 | 71 | 5 | 0.0 | 1.0 | 0.00 | 0.67 | 0.67 | 99 | 1009.3 |
| 20260509213625 | 70 | 41 | 1.0 | 1.0 | 0.00 | 0.67 | 0.67 | 99 | 1009.6 |
| 20260509213121 | 70 | 60 | 0.0 | 1.0 | 0.00 | 0.67 | 0.67 | 99 | 1009.6 |
| 20260509212619 | 70 | 49 | 1.0 | 1.0 | 0.00 | 0.67 | 0.67 | 99 | 1009.7 |
| 20260509212116 | 71 | 174 | 2.0 | 2.0 | 0.00 | 0.67 | 0.67 | 99 | 1009.6 |
| 20260509211612 | 71 | 8 | 1.0 | 2.0 | 0.00 | 0.67 | 0.67 | 99 | 1009.5 |
| 20260509211108 | 71 | 25 | 1.0 | 1.0 | 0.00 | 0.67 | 0.67 | 99 | 1009.6 |
| 20260509210605 | 71 | 75 | 1.0 | 1.0 | 0.00 | 0.67 | 0.67 | 99 | 1009.8 |
| 20260509205556 | 72 | 119 | 3.0 | 3.0 | 0.00 | 0.67 | 0.67 | 99 | 1009.6 |
| 20260509205051 | 72 | 51 | 1.0 | 1.0 | 0.00 | 0.67 | 0.67 | 99 | 1009.6 |
| 20260509204548 | 72 | 110 | 1.0 | 2.0 | 0.00 | 0.67 | 0.67 | 99 | 1009.8 |
| 20260509204045 | 72 | 58 | 0.0 | 1.0 | 0.00 | 0.67 | 0.67 | 98 | 1009.6 |
| 20260509203540 | 73 | 125 | 2.0 | 2.0 | 0.00 | 0.67 | 0.67 | 97 | 1009.8 |
| 20260509203039 | 73 | 139 | 1.0 | 2.0 | 0.00 | 0.67 | 0.67 | 97 | 1009.9 |
| 20260509202533 | 73 | 87 | 1.0 | 1.0 | 0.00 | 0.67 | 0.67 | 97 | 1009.6 |
| 20260509202029 | 74 | 99 | 1.0 | 2.0 | 0.00 | 0.67 | 0.67 | 97 | 1009.9 |
| 20260509201524 | 74 | 35 | 1.0 | 1.0 | 0.00 | 0.67 | 0.67 | 98 | 1009.8 |
| 20260509201022 | 74 | 24 | 0.0 | 1.0 | 0.00 | 0.67 | 0.67 | 98 | 1009.8 |
| 20260509200521 | 74 | 63 | 1.0 | 1.0 | 0.00 | 0.67 | 0.67 | 98 | 1009.7 |
| 20260509200019 | 74 | 15 | 0.0 | 1.0 | 0.00 | 0.67 | 0.67 | 98 | 1009.6 |
| 20260509195514 | 74 | 37 | 0.0 | 1.0 | 0.00 | 0.67 | 0.67 | 98 | 1009.7 |
| 20260509195014 | 74 | 1 | 0.0 | 0.0 | 0.00 | 0.67 | 0.67 | 98 | 1009.8 |
| 20260509194509 | 74 | 54 | 1.0 | 1.0 | 0.00 | 0.67 | 0.67 | 99 | 1009.7 |
| 20260509194007 | 74 | 11 | 0.0 | 1.0 | 0.00 | 0.67 | 0.67 | 99 | 1009.7 |
| 20260509193507 | 74 | 54 | 0.0 | 1.0 | 0.00 | 0.67 | 0.67 | 99 | 1009.5 |
| 20260509193004 | 74 | 0 | 0.0 | 0.0 | 0.00 | 0.67 | 0.67 | 99 | 1009.8 |
| 20260509192500 | 74 | 8 | 0.0 | 0.0 | 0.00 | 0.67 | 0.67 | 99 | 1009.8 |
| 20260509191955 | 74 | 305 | 0.0 | 1.0 | 0.00 | 0.67 | 0.67 | 99 | 1009.9 |
| 20260509191450 | 74 | 5 | 0.0 | 1.0 | 0.00 | 0.67 | 0.67 | 99 | 1009.9 |
| 20260509190946 | 74 | 40 | 1.0 | 1.0 | 0.00 | 0.67 | 0.67 | 99 | 1009.9 |
| 20260509190443 | 74 | 16 | 0.0 | 1.0 | 0.00 | 0.67 | 0.67 | 99 | 1009.7 |
| 20260509185941 | 73 | 189 | 1.0 | 1.0 | 0.00 | 0.67 | 0.67 | 99 | 1010.0 |
| 20260509185438 | 73 | 313 | 0.0 | 0.0 | 0.00 | 0.67 | 0.67 | 99 | 1010.0 |
| 20260509184935 | 73 | 303 | 0.0 | 0.0 | 0.00 | 0.67 | 0.67 | 99 | 1009.9 |
| 20260509184433 | 73 | 14 | 0.0 | 0.0 | 0.00 | 0.67 | 0.67 | 99 | 1010.2 |
| 20260509183929 | 72 | 355 | 0.0 | 0.0 | 0.00 | 0.67 | 0.67 | 99 | 1010.0 |
| 20260509183423 | 72 | 2 | 0.0 | 0.0 | 0.00 | 0.67 | 0.67 | 99 | 1010.1 |
| 20260509182920 | 72 | 2 | 0.0 | 0.0 | 0.00 | 0.67 | 0.67 | 99 | 1010.2 |
| 20260509182416 | 72 | 347 | 0.0 | 0.0 | 0.00 | 0.67 | 0.67 | 99 | 1010.5 |
| 20260509181914 | 72 | 347 | 0.0 | 0.0 | 0.00 | 0.67 | 0.67 | 99 | 1010.3 |
| 20260509181412 | 72 | 347 | 0.0 | 0.0 | 0.00 | 0.67 | 0.67 | 99 | 1010.4 |
| 20260509180909 | 72 | 337 | 0.0 | 0.0 | 0.00 | 0.67 | 0.67 | 99 | 1010.4 |
| 20260509180404 | 73 | 314 | 0.0 | 0.0 | 0.00 | 0.67 | 0.67 | 99 | 1010.4 |
| 20260509175901 | 73 | 309 | 0.0 | 0.0 | 0.00 | 0.67 | 0.67 | 99 | 1010.4 |
| 20260509175357 | 73 | 307 | 0.0 | 0.0 | 0.00 | 0.67 | 0.67 | 99 | 1010.7 |
| 20260509174854 | 72 | 13 | 1.0 | 1.0 | 0.00 | 0.67 | 0.67 | 99 | 1010.7 |
| 20260509174350 | 73 | 359 | 0.0 | 0.0 | 0.00 | 0.67 | 0.67 | 99 | 1010.6 |
| 20260509173846 | 72 | 328 | 0.0 | 0.0 | 0.00 | 0.67 | 0.67 | 99 | 1011.0 |
| 20260509173341 | 72 | 341 | 0.0 | 0.0 | 0.00 | 0.67 | 0.67 | 99 | 1010.8 |
| 20260509172837 | 72 | 1 | 0.0 | 0.0 | 0.00 | 0.67 | 0.67 | 99 | 1011.0 |
| 20260509172334 | 72 | 0 | 0.0 | 0.0 | 0.00 | 0.67 | 0.67 | 99 | 1010.9 |
| 20260509171830 | 72 | 325 | 0.0 | 0.0 | 0.00 | 0.67 | 0.67 | 99 | 1011.1 |
| 20260509171326 | 71 | 329 | 0.0 | 0.0 | 0.00 | 0.67 | 0.67 | 99 | 1011.2 |
| 20260509170823 | 71 | 337 | 0.0 | 0.0 | 0.00 | 0.67 | 0.67 | 99 | 1010.9 |
| 20260509170318 | 71 | 345 | 0.0 | 0.0 | 0.00 | 0.67 | 0.67 | 99 | 1011.2 |
| 20260509165818 | 71 | 322 | 0.0 | 0.0 | 0.00 | 0.67 | 0.67 | 99 | 1011.2 |
| 20260509165313 | 71 | 350 | 0.0 | 0.0 | 0.00 | 0.67 | 0.67 | 99 | 1011.1 |
| 20260509164809 | 71 | 329 | 0.0 | 0.0 | 0.00 | 0.67 | 0.67 | 99 | 1011.0 |
| 20260509164306 | 71 | 13 | 0.0 | 1.0 | 0.00 | 0.67 | 0.67 | 99 | 1011.0 |
| 20260509163802 | 71 | 345 | 0.0 | 0.0 | 0.00 | 0.67 | 0.67 | 99 | 1010.8 |
| 20260509163259 | 70 | 356 | 0.0 | 0.0 | 0.07 | 0.67 | 0.67 | 99 | 1010.9 |
| 20260509162758 | 71 | 316 | 0.0 | 1.0 | 0.07 | 0.67 | 0.67 | 99 | 1010.7 |
| 20260509162251 | 71 | 4 | 0.0 | 0.0 | 0.00 | 0.66 | 0.66 | 99 | 1010.7 |
| 20260509161747 | 70 | 16 | 0.0 | 0.0 | 0.00 | 0.66 | 0.66 | 99 | 1010.7 |
| 20260509161243 | 70 | 336 | 0.0 | 0.0 | 0.00 | 0.66 | 0.66 | 99 | 1010.7 |
| 20260509160739 | 70 | 338 | 0.0 | 0.0 | 0.00 | 0.66 | 0.66 | 99 | 1010.8 |
| 20260509160236 | 70 | 297 | 0.0 | 1.0 | 0.00 | 0.66 | 0.66 | 99 | 1010.6 |
| 20260509155731 | 69 | 357 | 0.0 | 0.0 | 0.00 | 0.66 | 0.66 | 99 | 1010.8 |
| 20260509155228 | 69 | 15 | 0.0 | 0.0 | 0.00 | 0.66 | 0.66 | 99 | 1010.8 |
| 20260509154723 | 69 | 328 | 0.0 | 0.0 | 0.00 | 0.66 | 0.66 | 99 | 1010.9 |
| 20260509154221 | 69 | 7 | 0.0 | 0.0 | 0.00 | 0.66 | 0.66 | 99 | 1010.6 |
| 20260509153718 | 68 | 355 | 1.0 | 1.0 | 0.00 | 0.66 | 0.66 | 99 | 1010.6 |
| 20260509153214 | 68 | 0 | 1.0 | 1.0 | 0.00 | 0.66 | 0.66 | 99 | 1010.5 |
| 20260509152710 | 68 | 355 | 0.0 | 0.0 | 0.00 | 0.66 | 0.66 | 99 | 1010.8 |
| 20260509152207 | 68 | 329 | 0.0 | 0.0 | 0.00 | 0.66 | 0.66 | 99 | 1010.8 |
| 20260509151704 | 68 | 13 | 0.0 | 0.0 | 0.00 | 0.66 | 0.66 | 99 | 1010.5 |
| 20260509151201 | 68 | 2 | 0.0 | 0.0 | 0.00 | 0.66 | 0.66 | 99 | 1010.6 |
| 20260509150659 | 68 | 347 | 0.0 | 0.0 | 0.00 | 0.66 | 0.66 | 99 | 1010.6 |
| 20260509150157 | 68 | 10 | 0.0 | 0.0 | 0.00 | 0.66 | 0.66 | 99 | 1010.7 |
| 20260509145653 | 68 | 308 | 0.0 | 0.0 | 0.00 | 0.66 | 0.66 | 99 | 1010.7 |
| 20260509145148 | 67 | 351 | 0.0 | 0.0 | 0.00 | 0.66 | 0.66 | 99 | 1010.9 |
| 20260509144645 | 67 | 352 | 0.0 | 0.0 | 0.00 | 0.66 | 0.66 | 99 | 1010.6 |
| 20260509144142 | 68 | 339 | 0.0 | 0.0 | 0.00 | 0.66 | 0.66 | 99 | 1010.9 |
| 20260509143639 | 67 | 0 | 0.0 | 0.0 | 0.00 | 0.66 | 0.66 | 99 | 1010.8 |
| 20260509143137 | 67 | 21 | 0.0 | 0.0 | 0.00 | 0.66 | 0.66 | 99 | 1011.0 |
| 20260509142632 | 67 | 11 | 0.0 | 0.0 | 0.00 | 0.66 | 0.66 | 99 | 1010.7 |
| 20260509142129 | 67 | 355 | 0.0 | 0.0 | 0.00 | 0.66 | 0.66 | 99 | 1011.0 |
| 20260509141624 | 67 | 4 | 0.0 | 0.0 | 0.00 | 0.66 | 0.66 | 99 | 1010.7 |
| 20260509141121 | 67 | 354 | 0.0 | 0.0 | 0.12 | 0.66 | 0.66 | 99 | 1010.8 |
| 20260509140618 | 66 | 350 | 0.0 | 0.0 | 0.66 | 0.66 | 0.66 | 99 | 1010.8 |
| 20260509140116 | 67 | 359 | 0.0 | 0.0 | 0.54 | 0.64 | 0.64 | 99 | 1010.6 |
| 20260509135613 | 67 | 332 | 0.0 | 0.0 | 0.07 | 0.56 | 0.56 | 99 | 1010.9 |
| 20260509135111 | 67 | 346 | 0.0 | 0.0 | 0.00 | 0.55 | 0.55 | 99 | 1010.8 |
| 20260509134607 | 66 | 317 | 0.0 | 0.0 | 0.00 | 0.55 | 0.55 | 99 | 1010.8 |
| 20260509134105 | 66 | 352 | 0.0 | 0.0 | 0.00 | 0.55 | 0.55 | 99 | 1010.5 |
| 20260509133602 | 66 | 4 | 0.0 | 0.0 | 0.00 | 0.55 | 0.55 | 99 | 1010.8 |
| 20260509133059 | 66 | 336 | 0.0 | 0.0 | 0.00 | 0.55 | 0.55 | 99 | 1010.6 |
| 20260509132557 | 65 | 17 | 0.0 | 0.0 | 0.00 | 0.55 | 0.55 | 99 | 1010.7 |
| 20260509132055 | 65 | 16 | 0.0 | 0.0 | 0.00 | 0.55 | 0.55 | 99 | 1010.9 |
| 20260509131551 | 65 | 319 | 0.0 | 0.0 | 0.00 | 0.55 | 0.55 | 99 | 1010.9 |
| 20260509131048 | 65 | 6 | 0.0 | 0.0 | 0.00 | 0.55 | 0.55 | 99 | 1010.7 |
| 20260509130544 | 65 | 327 | 0.0 | 0.0 | 0.00 | 0.55 | 0.55 | 99 | 1010.9 |
| 20260509130041 | 65 | 357 | 0.0 | 0.0 | 0.00 | 0.55 | 0.55 | 99 | 1010.8 |
| 20260509125537 | 65 | 0 | 0.0 | 0.0 | 0.00 | 0.55 | 0.55 | 99 | 1010.6 |
| 20260509125034 | 65 | 21 | 0.0 | 0.0 | 0.05 | 0.55 | 0.55 | 99 | 1010.5 |
| 20260509124530 | 65 | 355 | 0.0 | 0.0 | 0.17 | 0.55 | 0.55 | 99 | 1011.0 |
| 20260509124028 | 65 | 36 | 0.0 | 1.0 | 0.19 | 0.54 | 0.54 | 99 | 1010.7 |
| 20260509123526 | 65 | 2 | 0.0 | 0.0 | 0.19 | 0.52 | 0.52 | 99 | 1010.8 |
| 20260509123021 | 65 | 291 | 0.0 | 0.0 | 0.47 | 0.51 | 0.51 | 99 | 1010.7 |
| 20260509122518 | 65 | 326 | 0.0 | 0.0 | 0.66 | 0.49 | 0.49 | 99 | 1010.7 |
| 20260509122015 | 65 | 351 | 0.0 | 0.0 | 0.35 | 0.44 | 0.44 | 99 | 1010.6 |
| 20260509121512 | 65 | 344 | 0.0 | 0.0 | 0.00 | 0.38 | 0.38 | 99 | 1010.5 |
| 20260509121010 | 64 | 320 | 0.0 | 0.0 | 0.00 | 0.38 | 0.38 | 99 | 1010.6 |
| 20260509120508 | 64 | 4 | 0.0 | 0.0 | 0.00 | 0.38 | 0.38 | 99 | 1010.4 |
| 20260509120005 | 64 | 4 | 0.0 | 0.0 | 0.00 | 0.38 | 0.38 | 99 | 1010.5 |
| 20260509115502 | 64 | 0 | 0.0 | 0.0 | 0.00 | 0.38 | 0.38 | 99 | 1010.5 |
| 20260509115000 | 64 | 21 | 0.0 | 0.0 | 0.00 | 0.38 | 0.38 | 99 | 1010.3 |
| 20260509114458 | 64 | 357 | 0.0 | 0.0 | 0.00 | 0.38 | 0.38 | 99 | 1010.5 |
| 20260509113957 | 63 | 322 | 0.0 | 0.0 | 0.00 | 0.38 | 0.38 | 99 | 1010.6 |
| 20260509113454 | 63 | 322 | 0.0 | 0.0 | 0.00 | 0.38 | 0.38 | 99 | 1010.3 |
| 20260509112951 | 63 | 359 | 0.0 | 0.0 | 0.00 | 0.38 | 0.38 | 99 | 1010.5 |
| 20260509112448 | 63 | 359 | 0.0 | 0.0 | 0.00 | 0.38 | 0.38 | 99 | 1010.5 |
| 20260509111944 | 63 | 318 | 0.0 | 0.0 | 0.00 | 0.38 | 0.38 | 99 | 1010.7 |
| 20260509111442 | 63 | 337 | 0.0 | 0.0 | 0.00 | 0.38 | 0.38 | 99 | 1010.1 |
| 20260509110940 | 63 | 341 | 0.0 | 0.0 | 0.00 | 0.38 | 0.38 | 99 | 1009.9 |
| 20260509110435 | 63 | 341 | 0.0 | 0.0 | 0.00 | 0.38 | 0.38 | 99 | 1010.1 |
| 20260509105933 | 63 | 340 | 0.0 | 0.0 | 0.00 | 0.38 | 0.38 | 99 | 1009.9 |
| 20260509105432 | 63 | 351 | 0.0 | 0.0 | 0.00 | 0.38 | 0.38 | 99 | 1009.8 |
| 20260509104928 | 63 | 351 | 0.0 | 0.0 | 0.00 | 0.38 | 0.38 | 99 | 1009.8 |
| 20260509104425 | 63 | 351 | 0.0 | 0.0 | 0.00 | 0.38 | 0.38 | 99 | 1009.8 |
| 20260509103922 | 63 | 21 | 0.0 | 0.0 | 0.00 | 0.38 | 0.38 | 99 | 1009.8 |
| 20260509103420 | 63 | 18 | 0.0 | 0.0 | 0.00 | 0.38 | 0.38 | 99 | 1009.9 |
| 20260509102918 | 64 | 344 | 0.0 | 0.0 | 0.00 | 0.38 | 0.38 | 99 | 1009.6 |
| 20260509102415 | 64 | 344 | 0.0 | 0.0 | 0.00 | 0.38 | 0.38 | 99 | 1009.8 |
| 20260509101911 | 64 | 131 | 1.0 | 1.0 | 0.00 | 0.38 | 0.38 | 99 | 1009.3 |
| 20260509101407 | 64 | 10 | 0.0 | 0.0 | 0.00 | 0.38 | 0.38 | 99 | 1009.6 |
| 20260509100905 | 64 | 308 | 0.0 | 0.0 | 0.00 | 0.38 | 0.38 | 99 | 1009.3 |
| 20260509100402 | 64 | 41 | 0.0 | 0.0 | 0.00 | 0.38 | 0.38 | 99 | 1009.5 |
| 20260509095859 | 64 | 26 | 1.0 | 2.0 | 0.00 | 0.38 | 0.38 | 99 | 1009.6 |
| 20260509095356 | 64 | 274 | 1.0 | 1.0 | 0.00 | 0.38 | 0.38 | 99 | 1009.5 |
| 20260509094853 | 64 | 50 | 0.0 | 1.0 | 0.00 | 0.38 | 0.38 | 99 | 1008.4 |
| 20260509094349 | 64 | 41 | 1.0 | 1.0 | 0.00 | 0.38 | 0.38 | 99 | 1009.1 |
| 20260509093847 | 64 | 11 | 0.0 | 0.0 | 0.07 | 0.38 | 0.38 | 99 | 1009.7 |
| 20260509093344 | 64 | 32 | 0.0 | 0.0 | 0.07 | 0.38 | 0.38 | 99 | 1010.2 |
| 20260509092843 | 64 | 40 | 1.0 | 1.0 | 0.00 | 0.37 | 0.37 | 99 | 1010.2 |
| 20260509092340 | 64 | 91 | 1.0 | 1.0 | 0.00 | 0.37 | 0.37 | 99 | 1010.2 |
| 20260509091838 | 64 | 357 | 0.0 | 0.0 | 0.00 | 0.37 | 0.37 | 99 | 1010.1 |
| 20260509091335 | 65 | 38 | 0.0 | 1.0 | 0.00 | 0.37 | 0.37 | 99 | 1009.9 |
| 20260509090832 | 65 | 299 | 1.0 | 1.0 | 0.00 | 0.37 | 0.37 | 99 | 1009.7 |
| 20260509090329 | 65 | 317 | 0.0 | 1.0 | 0.00 | 0.37 | 0.37 | 99 | 1009.0 |
| 20260509085827 | 65 | 185 | 1.0 | 1.0 | 0.00 | 0.37 | 0.37 | 99 | 1008.6 |
| 20260509085324 | 65 | 271 | 1.0 | 2.0 | 0.05 | 0.37 | 0.37 | 99 | 1008.2 |
| 20260509084820 | 64 | 227 | 1.0 | 1.0 | 0.05 | 0.37 | 0.37 | 99 | 1008.7 |
| 20260509084317 | 64 | 169 | 2.0 | 2.0 | 0.00 | 0.36 | 0.36 | 99 | 1008.9 |
| 20260509083815 | 64 | 152 | 1.0 | 1.0 | 0.00 | 0.36 | 0.36 | 99 | 1008.5 |
| 20260509083311 | 64 | 154 | 1.0 | 1.0 | 0.00 | 0.36 | 0.36 | 99 | 1008.5 |
| 20260509082808 | 64 | 229 | 1.0 | 2.0 | 0.00 | 0.36 | 0.36 | 99 | 1008.3 |
| 20260509082307 | 64 | 108 | 1.0 | 1.0 | 0.07 | 0.36 | 0.36 | 99 | 1007.6 |
| 20260509081802 | 64 | 86 | 2.0 | 2.0 | 0.07 | 0.36 | 0.36 | 99 | 1008.6 |
| 20260509081259 | 64 | 146 | 2.0 | 2.0 | 0.12 | 0.35 | 0.35 | 99 | 1008.9 |
| 20260509080757 | 64 | 93 | 1.0 | 1.0 | 0.12 | 0.35 | 0.35 | 99 | 1008.7 |
| 20260509080254 | 64 | 352 | 0.0 | 0.0 | 0.07 | 0.34 | 0.34 | 99 | 1009.0 |
| 20260509075753 | 64 | 317 | 0.0 | 0.0 | 0.00 | 0.33 | 0.33 | 99 | 1009.9 |
| 20260509075250 | 64 | 44 | 0.0 | 0.0 | 0.47 | 0.33 | 0.33 | 99 | 1010.3 |
| 20260509074746 | 64 | 178 | 1.0 | 2.0 | 0.47 | 0.33 | 0.33 | 99 | 1010.6 |
| 20260509074244 | 65 | 246 | 1.0 | 2.0 | 1.39 | 0.50 | 0.50 | 99 | 1010.7 |
| 20260509073740 | 66 | 296 | 3.0 | 3.0 | 1.37 | 0.45 | 0.45 | 99 | 1010.6 |
| 20260509073237 | 68 | 3 | 2.0 | 2.0 | 0.54 | 0.30 | 0.30 | 99 | 1011.5 |
| 20260509072733 | 68 | 355 | 1.0 | 2.0 | 0.19 | 0.22 | 0.22 | 99 | 1010.8 |
| 20260509072230 | 68 | 281 | 1.0 | 1.0 | 0.19 | 0.21 | 0.21 | 99 | 1011.0 |
| 20260509071727 | 68 | 318 | 1.0 | 1.0 | 0.12 | 0.19 | 0.19 | 99 | 1010.4 |
| 20260509071224 | 68 | 346 | 1.0 | 1.0 | 0.12 | 0.18 | 0.18 | 99 | 1010.1 |
| 20260509070721 | 68 | 323 | 0.0 | 0.0 | 0.12 | 0.17 | 0.17 | 99 | 1009.8 |
| 20260509070217 | 68 | 17 | 0.0 | 0.0 | 0.35 | 0.16 | 0.16 | 99 | 1009.7 |
| 20260509065714 | 68 | 3 | 1.0 | 1.0 | 0.78 | 0.15 | 0.15 | 99 | 1009.4 |
| 20260509065210 | 68 | 344 | 0.0 | 0.0 | 0.54 | 0.09 | 0.09 | 99 | 1009.5 |
| 20260509064707 | 68 | 314 | 0.0 | 0.0 | 0.05 | 0.01 | 0.01 | 99 | 1009.7 |
| 20260509064204 | 68 | 4 | 0.0 | 0.0 | 0.00 | 0.00 | 0.00 | 99 | 1009.8 |
| 20260509063701 | 68 | 15 | 1.0 | 2.0 | 0.00 | 0.00 | 0.00 | 99 | 1010.1 |
| 20260509063158 | 68 | 10 | 1.0 | 1.0 | 0.00 | 0.00 | 0.00 | 99 | 1010.4 |
| 20260509062655 | 68 | 354 | 0.0 | 0.0 | 0.00 | 0.00 | 0.00 | 99 | 1010.6 |
| 20260509062152 | 68 | 337 | 0.0 | 0.0 | 0.00 | 0.00 | 0.00 | 99 | 1010.6 |
| 20260509061649 | 68 | 356 | 0.0 | 0.0 | 0.00 | 0.00 | 0.00 | 99 | 1010.2 |
| 20260509061146 | 68 | 356 | 0.0 | 0.0 | 0.00 | 0.00 | 0.00 | 99 | 1010.0 |
| 20260509060644 | 68 | 356 | 0.0 | 0.0 | 0.00 | 0.00 | 0.00 | 99 | 1010.1 |
| 20260509060140 | 68 | 3 | 0.0 | 0.0 | 0.00 | 0.00 | 0.00 | 99 | 1010.0 |
| 20260509055636 | 68 | 316 | 0.0 | 0.0 | 0.00 | 0.00 | 0.00 | 99 | 1010.3 |
| 20260509055132 | 68 | 11 | 0.0 | 0.0 | 0.00 | 0.00 | 0.00 | 99 | 1010.1 |
| 20260509054628 | 68 | 21 | 0.0 | 0.0 | 0.00 | 0.00 | 0.00 | 99 | 1010.3 |
| 20260509054126 | 68 | 1 | 0.0 | 0.0 | 0.00 | 0.00 | 0.00 | 99 | 1010.0 |
| 20260509053624 | 68 | 318 | 0.0 | 0.0 | 0.00 | 0.00 | 0.00 | 99 | 1009.9 |
| 20260509053121 | 68 | 46 | 0.0 | 0.0 | 0.00 | 0.00 | 0.00 | 99 | 1010.1 |
| 20260509052619 | 68 | 351 | 0.0 | 0.0 | 0.00 | 0.00 | 0.00 | 99 | 1010.3 |
| 20260509052116 | 68 | 350 | 0.0 | 0.0 | 0.00 | 0.00 | 0.00 | 99 | 1010.4 |
| 20260509051614 | 68 | 350 | 0.0 | 0.0 | 0.00 | 0.00 | 0.00 | 99 | 1010.5 |
| 20260509051111 | 68 | 350 | 0.0 | 0.0 | 0.00 | 0.00 | 0.00 | 99 | 1010.6 |
| 20260509050608 | 68 | 350 | 0.0 | 0.0 | 0.00 | 0.00 | 0.00 | 99 | 1010.7 |
| 20260509050104 | 68 | 350 | 0.0 | 0.0 | 0.00 | 0.00 | 0.00 | 99 | 1010.8 |
| 20260509045602 | 68 | 350 | 0.0 | 0.0 | 0.00 | 0.00 | 0.00 | 99 | 1010.8 |
| 20260509045058 | 68 | 350 | 0.0 | 0.0 | 0.00 | 0.00 | 0.00 | 99 | 1010.9 |
| 20260509044556 | 69 | 356 | 0.0 | 0.0 | 0.00 | 0.00 | 0.00 | 99 | 1011.0 |
| 20260509044053 | 69 | 5 | 0.0 | 0.0 | 0.00 | 0.00 | 0.00 | 99 | 1010.9 |
| 20260509043549 | 69 | 14 | 0.0 | 0.0 | 0.00 | 0.00 | 0.00 | 99 | 1010.8 |
| 20260509043045 | 69 | 349 | 0.0 | 0.0 | 0.00 | 0.00 | 0.00 | 99 | 1010.9 |
| 20260509042541 | 69 | 347 | 0.0 | 0.0 | 0.00 | 0.00 | 0.00 | 99 | 1010.7 |
| 20260509042038 | 69 | 357 | 0.0 | 0.0 | 0.00 | 0.00 | 0.00 | 99 | 1010.7 |
| 20260509041534 | 69 | 3 | 0.0 | 1.0 | 0.00 | 0.00 | 0.00 | 99 | 1011.2 |
| 20260509041032 | 69 | 345 | 0.0 | 0.0 | 0.00 | 0.00 | 0.00 | 99 | 1010.7 |
| 20260509040531 | 69 | 344 | 0.0 | 0.0 | 0.00 | 0.00 | 0.00 | 99 | 1011.0 |
| 20260509040027 | 69 | 7 | 0.0 | 0.0 | 0.00 | 0.00 | 0.00 | 99 | 1010.8 |
| 20260509035524 | 69 | 354 | 0.0 | 1.0 | 0.00 | 0.00 | 0.00 | 99 | 1010.7 |
| 20260509035020 | 69 | 356 | 0.0 | 0.0 | 0.00 | 0.00 | 0.00 | 99 | 1010.7 |
| 20260509034519 | 69 | 355 | 0.0 | 0.0 | 0.00 | 0.00 | 0.00 | 99 | 1010.8 |
| 20260509034015 | 68 | 355 | 0.0 | 0.0 | 0.00 | 0.00 | 0.00 | 99 | 1010.7 |
| 20260509033512 | 68 | 355 | 0.0 | 0.0 | 0.00 | 0.00 | 0.00 | 99 | 1010.7 |
| 20260509033009 | 68 | 355 | 0.0 | 0.0 | 0.00 | 0.00 | 0.00 | 99 | 1010.7 |
| 20260509032506 | 68 | 350 | 0.0 | 0.0 | 0.00 | 0.00 | 0.00 | 99 | 1010.7 |
| 20260509031958 | 68 | 350 | 0.0 | 0.0 | 0.00 | 0.00 | 0.00 | 99 | 1010.4 |
| 20260509031455 | 68 | 350 | 0.0 | 0.0 | 0.00 | 0.00 | 0.00 | 99 | 1010.6 |
| 20260509030953 | 68 | 350 | 0.0 | 0.0 | 0.00 | 0.00 | 0.00 | 99 | 1010.4 |
| 20260509030450 | 68 | 355 | 0.0 | 0.0 | 0.00 | 0.00 | 0.00 | 99 | 1010.2 |
| 20260509025947 | 68 | 10 | 0.0 | 0.0 | 0.00 | 0.00 | 0.00 | 99 | 1010.1 |
| 20260509025443 | 68 | 356 | 0.0 | 0.0 | 0.00 | 0.00 | 0.00 | 99 | 1010.0 |
| 20260509024938 | 68 | 11 | 0.0 | 0.0 | 0.00 | 0.00 | 0.00 | 99 | 1010.1 |
| 20260509024435 | 68 | 354 | 0.0 | 0.0 | 0.00 | 0.00 | 0.00 | 99 | 1010.0 |
| 20260509023932 | 68 | 28 | 0.0 | 1.0 | 0.00 | 0.00 | 0.00 | 99 | 1009.8 |
| 20260509023429 | 68 | 48 | 1.0 | 1.0 | 0.00 | 0.00 | 0.00 | 98 | 1009.8 |
| 20260509022926 | 68 | 27 | 0.0 | 1.0 | 0.00 | 0.00 | 0.00 | 98 | 1009.8 |
| 20260509022423 | 68 | 0 | 0.0 | 0.0 | 0.00 | 0.00 | 0.00 | 98 | 1009.5 |
| 20260509021920 | 68 | 17 | 0.0 | 0.0 | 0.00 | 0.00 | 0.00 | 98 | 1009.2 |
| 20260509021417 | 68 | 0 | 0.0 | 0.0 | 0.00 | 0.00 | 0.00 | 98 | 1009.1 |
| 20260509020915 | 68 | 58 | 1.0 | 1.0 | 0.00 | 0.00 | 0.00 | 98 | 1008.8 |
| 20260509020413 | 68 | 286 | 1.0 | 1.0 | 0.00 | 0.00 | 0.00 | 98 | 1009.0 |
| 20260509015909 | 68 | 15 | 0.0 | 0.0 | 0.00 | 0.00 | 0.00 | 98 | 1008.8 |
| 20260509015409 | 69 | 43 | 0.0 | 1.0 | 0.00 | 0.00 | 0.00 | 98 | 1008.7 |
| 20260509014904 | 69 | 352 | 0.0 | 0.0 | 0.00 | 0.00 | 0.00 | 98 | 1008.9 |
| 20260509014401 | 69 | 120 | 1.0 | 1.0 | 0.00 | 0.00 | 0.00 | 98 | 1008.3 |
| 20260509013858 | 69 | 63 | 1.0 | 1.0 | 0.00 | 0.00 | 0.00 | 98 | 1008.5 |
| 20260509013354 | 69 | 8 | 0.0 | 0.0 | 0.00 | 0.00 | 0.00 | 98 | 1008.0 |
| 20260509012850 | 69 | 157 | 1.0 | 1.0 | 0.00 | 0.00 | 0.00 | 98 | 1008.1 |
| 20260509012347 | 69 | 65 | 1.0 | 1.0 | 0.00 | 0.00 | 0.00 | 97 | 1008.6 |
| 20260509011844 | 69 | 89 | 1.0 | 1.0 | 0.00 | 0.00 | 0.00 | 97 | 1008.8 |
| 20260509011342 | 69 | 41 | 0.0 | 1.0 | 0.00 | 0.00 | 0.00 | 96 | 1008.9 |
| 20260509010840 | 70 | 32 | 0.0 | 0.0 | 0.00 | 0.00 | 0.00 | 96 | 1009.0 |
| 20260509010337 | 70 | 304 | 0.0 | 1.0 | 0.00 | 0.00 | 0.00 | 95 | 1009.3 |